User: anonymous   Login
Location: Leo
(52.0556°N, 112.3605°W)
Time: 22:53:00
(UTC+00:00)
Language:

XW-2B - Orbit

View from above orbital plane
View from above orbital plane
View from above satellite
View from above satellite

Ground track
Ground track

The orbit data is extracted from the following two-line orbital elements,

1 40911U 15049N   23333.52073298  .00029707  00000-0  87815-3 0  9991
2 40911  97.4850 343.2167 0007099 299.3950  60.6584 15.34861845453666
Epoch (UTC): 29 November 2023 12:29:51
Eccentricity: 0.0007099
inclination: 97.4850°
perigee height: 456 km
apogee height: 466 km
right ascension of ascending node: 343.2167°
argument of perigee: 299.3950°
revolutions per day: 15.34861845
mean anomaly at epoch: 60.6584°
orbit number at epoch: 45366

The dashed part of the orbit path shows where the satellite is in the earth's shadow,  

DLR